Lid_Strength_Index
11 10 10 11 11 11 13 13 14 13 13 11 9 9 9 9 8 7 7 7 6 6 6 6 6 6 5 5 4 3 3 4 4 3 3 3 3 3 2 2 3 3 3 4
13 10 10 11 10 10 11 11 12 12 13 9 8 7 8 7 7 7 6 6 5 5 5 6 6 5 5 5 4 4 3 3 3 3 2 3 3 3 2 2 3 3 3 3
14 11 11 14 11 10 10 10 11 13 11 9 9 9 8 8 7 7 6 6 6 6 6 6 6 5 5 4 3 4 3 2 3 3 2 2 3 3 4 4 4 3 3 2
15 13 18 12 8 8 10 10 9 9 10 9 9 8 7 6 7 6 6 6 6 6 6 5 4 4 3 4 4 4 4 3 2 2 2 2 3 3 3 3 3 3 3 3
16 16 13 11 9 10 11 12 9 10 9 8 8 7 8 5 5 6 7 6 6 5 5 5 5 4 4 4 4 4 4 3 3 3 3 3 2 2 3 3 3 3 2 3
15 17 18 11 8 7 8 15 8 8 8 9 8 12 9 6 5 6 6 6 5 4 5 5 4 5 4 5 5 5 4 4 4 3 4 3 3 3 2 2 2 2 2 2
15 16 13 9 7 6 14 12 8 7 7 8 9 8 7 5 6 5 5 4 4 5 5 4 4 4 5 4 4 3 2 3 2 3 2 2 4 4 3 2 2 3 2 2
14 17 17 7 7 11 9 8 8 8 7 7 7 6 6 5 5 5 4 4 4 5 4 4 4 3 4 4 3 2 2 2 2 2 2 2 2 3 3 3 4 4 4 3
12 13 9 8 8 7 8 8 8 8 7 7 7 7 7 7 7 6 5 5 4 4 4 5 4 4 5 4 3 2 3 3 3 2 2 2 4 5 4 3 5 4 4 3
12 10 9 9 8 8 8 8 7 7 6 7 8 8 8 7 8 8 7 5 5 5 6 7 6 4 4 3 3 2 3 3 3 3 3 3 3 3 3 4 4 4 3 3
11 10 9 8 8 8 7 7 6 6 7 7 7 8 8 8 8 8 7 7 6 6 7 6 6 6 5 4 3 3 3 3 3 4 4 4 3 3 3 3 3 4 3 3
12 8 9 9 7 7 7 7 7 7 8 7 8 8 9 9 8 8 8 7 7 7 7 7 6 5 5 4 3 3 3 4 4 4 4 4 4 4 5 5 5 6 7 6
8 7 7 7 7 7 8 7 7 7 7 8 8 9 9 9 9 8 8 7 7 7 7 5 5 4 4 4 3 4 5 5 5 5 5 5 4 4 5 4 7 6 7 7
8 8 9 9 10 9 8 7 6 8 8 9 9 9 9 10 9 8 7 6 6 6 5 5 5 5 3 3 3 4 5 5 5 5 5 5 4 4 4 5 5 4 5 6
8 8 9 9 9 9 9 9 10 11 9 9 9 9 9 8 7 6 6 5 5 5 5 4 3 4 3 2 3 3 3 3 3 3 4 4 4 4 4 5 5 4 4 5
8 9 9 10 10 10 10 11 11 10 10 9 9 8 7 6 6 6 6 5 6 6 5 4 4 3 2 2 3 3 3 4 5 3 3 4 4 5 5 5 4 4 4 4
11 12 11 11 11 11 11 10 9 9 8 8 7 6 6 6 6 6 5 4 4 4 4 4 4 3 2 2 4 4 3 3 5 4 4 5 5 5 4 4 4 3 4 4
10 11 12 11 10 10 9 8 7 7 6 5 5 5 5 5 6 6 5 4 5 5 6 5 5 3 3 4 4 4 4 4 4 3 4 4 3 3 4 5 4 3 3 5
9 9 9 8 8 8 8 7 7 6 5 5 5 6 5 5 5 5 5 6 6 7 6 5 5 5 5 5 5 4 4 4 2 2 3 5 4 4 6 5 5 4 4 5
8 8 8 7 6 7 7 6 6 6 5 6 6 7 7 7 7 6 7 7 7 6 6 5 5 5 5 4 4 4 4 3 2 4 3 4 5 6 4 5 5 5 5 4
8 7 7 6 6 6 6 6 6 6 6 6 6 6 6 7 7 7 7 7 6 5 6 6 5 5 4 3 4 4 4 4 4 4 5 5 6 4 4 5 5 5 5 4
8 7 7 7 7 7 6 6 6 6 5 5 5 5 6 6 6 6 5 6 5 8 6 5 4 5 4 7 5 4 4 4 4 4 5 5 5 6 6 6 6 5 5 5
8 8 7 6 6 6 5 5 5 5 6 6 6 6 6 6 5 6 7 5 5 6 4 4 6 8 9 4 3 4 4 4 3 4 4 5 5 5 5 5 5 5 5 6
8 7 6 5 5 6 6 6 6 6 5 5 5 4 5 6 6 5 4 6 7 6 4 4 6 9 10 5 4 4 4 4 4 4 4 7 4 4 5 4 5 5 7 8
6 6 6 6 6 7 7 6 6 5 4 5 4 3 3 4 5 6 4 3 7 6 4 7 9 10 5 5 4 4 4 3 3 4 5 5 7 8 8 7 8 8 8 8
6 6 6 6 6 6 6 6 6 5 4 4 4 3 3 2 2 3 4 5 5 6 5 5 6 6 5 4 4 4 3 4 5 6 7 8 8 8 8 9 9 9 9 9
6 8 7 6 6 6 6 6 5 5 4 4 3 3 2 3 4 4 5 3 5 6 6 6 5 5 4 5 5 3 5 6 8 7 8 8 9 9 10 10 11 11 11 11